www.pogodaiklimat.ru

Погода и климат >> Архив погоды >> Иран >> Ахваз


ПОГОДА в Ахвазе

  • Прогноз погоды в Ахвазе
  • Монитор погоды в Ахвазе

АРХИВ ПОГОДЫ в Ахвазе

Время (UTC), дата Ветер
(напр.,м/с)
 
Видим.   Явления Облачность Т
(С)
Тd
(С)
f
(%)
Тe
(С)
Тes
(С)
Комфортность P
(гПа)
Po
(гПа)
Тmin
(С)
Tmax
(С)
R
(мм)
R24
(мм)
S
(см)
12 16.07 З 6 4000 м пыльный позёмок ясно +46.2 +5.7 9 +43 +48 опасность
перегрева
992.8 990.4
15 16.07 З 7 8000 м мгла ясно +41.4 +7.5 13 +39 +39 очень
жарко
992.9 990.5 +47.2
18 16.07 З 6 10 км 1/0
[Ci fib]
+37.4 +9.1 18 +36 +36 очень
жарко
994.6 992.2
21 16.07 З 5 10 км 1/0
[Ci fib]
+33.9 +9.2 22 +33 +33 жарко 994.7 992.3
00 17.07 СЗ 5 10 км 6/4 1200 м
[Sc Ac trans]
+31.9 +11.1 28 +32 +32 жарко 994.7 992.3
03 17.07 СЗ 5 10 км 5/3 1200 м
[Sc diur, vesp Ac trans]
+31.2 +11.1 29 +31 +32 жарко 995.0 992.6 +30.7
06 17.07 СЗ 4 10 км 8/5 1050 м
[Sc Ac As]
+35.0 +10.8 23 +34 +37 очень
жарко
996.0 993.6
09 17.07 СЗ 7 10 км 6/4 1200 м
[Sc diur, vesp Ac trans]
+40.4 +10.6 17 +39 +42 очень
жарко
996.2 993.8
12 17.07 З 6 10 км 8/4 1200 м
[Sc diur, vesp Ac trans]
+41.6 +9.7 15 +40 +42 очень
жарко
995.3 992.9
15 17.07 З 5 8000 м мгла 4/0
[Ac trans]
+40.3 +9.7 16 +39 +39 очень
жарко
994.9 992.4 +42.6 666
18 17.07 З 4 10 км ясно +36.5 +12.0 23 +36 +36 очень
жарко
996.1 993.7
21 17.07 З 5 10 км 5/3 1200 м
[Sc diur, vesp Ac trans]
+34.0 +11.8 26 +34 +34 очень
жарко
995.9 993.5
00 18.07 СЗ 2 10 км 6/4 1200 м
[Sc diur, vesp Ac trans]
+31.2 +11.6 30 +32 +32 жарко 995.3 992.9
03 18.07 З 1 10 км 6/3 1200 м
[Sc diur, vesp Ac trans]
+29.8 +12.3 34 +31 +31 жарко 995.6 993.2 +29.0 666
06 18.07 нст 1 10 км 1/0
[Ac trans]
+36.0 +13.5 26 +36 +52 опасность
солнечного
удара
995.9 993.5
09 18.07 нст 1 10 км ясно +43.7 +14.2 18 +44 +69 опасность
перегрева
996.0 993.6 666
12 18.07 З 2 10 км ясно +46.9 +10.5 12 +46 +57 опасность
перегрева
994.5 992.2
15 18.07 Ю 1 10 км ясно +45.9 +13.1 15 +46 +46 опасность
перегрева
993.7 991.3 +48.1
18 18.07 З 3 5000 м пыль ясно +41.5 +5.1 11 +39 +39 очень
жарко
994.3 991.9
21 18.07 СЗ 5 5000 м пыль ясно +38.7 +5.4 13 +36 +36 очень
жарко
994.0 991.7
00 19.07 СЗ 3 5000 м пыль 4/0
[Ac trans]
+35.0 +8.0 19 +33 +33 жарко 994.3 991.9
03 19.07 СЗ 2 5000 м мгла 5/0
[Ac trans]
+31.3 +10.1 27 +31 +32 жарко 995.5 993.1 +27.8
06 19.07 З 1 10 км 1/0
[Ac trans]
+40.1 +9.5 16 +38 +53 опасность
солнечного
удара
996.0 993.6
09 19.07 З 2 8000 м мгла ясно +44.1 +12.7 16 +44 +65 опасность
перегрева
995.8 993.4
12 19.07 З 7 8000 м пыльный позёмок ясно +45.8 +7.0 10 +43 +46 опасность
перегрева
994.5 992.2
15 19.07 З 5 10 км ясно +42.0 +7.9 13 +40 +40 очень
жарко
994.7 992.3 +46.7
18 19.07 З 5 10 км ясно +38.2 +8.9 17 +36 +36 очень
жарко
996.1 993.7
21 19.07 З 5 10 км 5/3 1200 м
[Sc diur, vesp Ac trans]
+35.5 +10.5 22 +35 +35 очень
жарко
995.9 993.5
00 20.07 З 3 10 км 6/4 1200 м
[Sc diur, vesp Ac trans]
+32.1 +12.9 31 +33 +33 жарко 996.0 993.6
03 20.07 З 2 10 км 3/0
[Cc]
+30.4 +13.7 36 +32 +33 жарко 997.3 994.9 +30.1
06 20.07 З 2 10 км 4/0
[Cc]
+36.9 +14.2 26 +38 +50 очень
душно
998.3 995.9
09 20.07 З 2 10 км ясно +41.8 +14.2 20 +42 +64 опасность
перегрева
998.0 995.6 666
12 20.07 З 2 10 км ясно +44.7 +13.1 16 +45 +56 опасность
перегрева
996.7 994.4
15 20.07 З 2 10 км ясно +44.4 +9.8 13 +43 +43 опасность
перегрева
996.1 993.7 +46.6 666
18 20.07 З 3 10 км ясно +38.7 +12.5 21 +38 +38 очень
жарко
997.6 995.2
21 20.07 СЗ 3 10 км ясно +36.6 +13.4 25 +37 +37 очень
жарко
997.9 995.5
00 21.07 З 1 10 км ясно +31.7 +13.0 32 +33 +33 жарко 997.9 995.5
03 21.07 З 1 8000 м мгла ясно +31.2 +14.8 37 +33 +35 жарко 998.4 996.0 +30.2 666
06 21.07 З 1 8000 м мгла ясно +37.8 +14.4 25 +39 +54 опасность
солнечного
удара
998.5 996.1
09 21.07 З 3 8000 м мгла ясно +44.7 +14.1 17 +45 +63 опасность
перегрева
997.4 995.1
12 21.07 СЗ 4 10 км ясно +47.3 +12.0 13 +47 +54 опасность
перегрева
995.4 993.1
15 21.07 З 4 10 км ясно +45.0 +12.4 15 +44 +45 опасность
перегрева
994.5 992.2 +48.2
18 21.07 СЗ 2 10 км ясно +40.3 +13.8 21 +41 +41 опасность
перегрева
996.1 993.8
21 21.07 СЗ 4 10 км 1/0
[Ac trans]
+37.6 +14.8 26 +39 +39 очень
душно
996.1 993.8
00 22.07 СЗ 2 8000 м мгла ясно +34.0 +15.5 33 +36 +36 душно 995.6 993.2
03 22.07 штиль 0 8000 м мгла 3/3 1200 м
[Sc diur, vesp]
+30.5 +16.1 42 +34 +35 очень
душно
996.9 994.5 +29.9 666
06 22.07 З 2 7000 м мгла ясно +39.2 +16.8 27 +42 +55 опасность
перегрева
996.8 994.4
09 22.07 З 2 8000 м мгла ясно +44.9 +16.0 19 +46 +68 опасность
перегрева
995.8 993.5
12 22.07 СЗ 3 10 км ясно +48.0 +10.0 11 +47 +56 опасность
перегрева
994.2 991.8
15 22.07 З 4 10 км ясно +45.1 +11.4 14 +44 +44 опасность
перегрева
993.6 991.2 +49.0 666
18 22.07 З 4 10 км 1/0
[Ci fib]
+40.3 +11.4 18 +39 +39 очень
жарко
994.3 991.9
21 22.07 З 3 10 км 1/0
[Ac trans]
+36.4 +13.8 26 +37 +37 очень
жарко
994.1 991.8
00 23.07 З 3 10 км 4/1 1200 м
[Sc Ac trans]
+34.3 +12.6 27 +35 +35 очень
жарко
993.5 991.1
03 23.07 Ю 1 10 км 5/1 1200 м
[Sc Ac trans]
+31.4 +12.7 32 +32 +33 жарко 994.8 992.5 +31.1 666
06 23.07 ЮЗ 1 8000 м мгла 4/0
[Ac trans]
+39.1 +13.5 22 +39 +51 опасность
солнечного
удара
995.3 992.9

 

Местоположение метеостанции Ахваз (Иран): широта 31.33 долгота 48.67 высота над уровнем моря 22 м.

В архиве по умолчанию представлена погода в Ахвазе за последнюю неделю. Архивные данные за месяц целиком и за предыдущие месяцы, начиная с января 2011 года, Вы можете получить, выбрав интересующий диапазон дат из раскрывающегося списка и нажав кнопку "Ввод!".


*Определитесь, кто Вы:
робот инопланетянин человек

Внимание! Время в таблицах - всемирное. Для получения местного времени необходимо прибавить поправку, которая равна 3.5 ч.

Смотрите также архив погоды в соседних городах и на ближайших метеорологических станциях:

Погода в Месджеде-Солеймане (Иран) (92 км)
Погода в Сафиабаде (Иран) (107 км)
Погода в Омидийе (Иран) (114 км)
Погода в Абадане (Иран) (114 км)
Погода в Басре (Ирак) (120 км)
Погода в Басре аэропорт (Ирак) (124 км)
Погода в Эль-Фао (Ирак) (151 км)
Погода в Амаре (Ирак) (153 км)
Погода в Абдали (Кувейт) (167 км)
Погода на Бубияне (Кувейт) (176 км)

Пояснения к столбцам:

Ветер - указаны скорость ветра в м/с - средняя за 10 мин, порывы в срок и между сроками (в фигурных скобках) и направление, откуда дует ветер: С - северный, СВ - северо-восточный, В - восточный, ЮВ - юго-восточный, Ю - южный, ЮЗ - юго-западный, З - западный, СЗ - северо-западный.
Видимость - горизонтальная дальность видимости в метрах или километрах. При видимости от 1 до 10 км при отсутствии осадков обычно наблюдается дымка, при ухудшении видимости до 1 км и менее - туман. В сухую погоду видимость может ухудшаться дымом, пылью или мглою.
Явления - указаны атмосферные явления, наблюдавшиеся в срок или в последний час перед сроком; фигурными скобками обозначены явления, наблюдавшиеся между сроками (за 1-3 часа до срока); квадратными скобками обозначены град или гололедные отложения с указанием их диаметра в мм.
Облачность - указаны через наклонную черту общая и нижняя облачность в баллах и высота нижней границы облаков в метрах; квадратными скобками обозначены формы облаков: Ci - перистые, Cs - перисто-слоистые, Cc - перисто-кучевые, Ac - высококучевые, As - высокослоистые, Sc - слоисто-кучевые, Ns - слоисто-дождевые, Cu - кучевые, Cb - кучево-дождевые. Подробнее классификацию облаков см. в Атласе облаков (PDF).
T - Температура воздуха - температура, измеренная на высоте 2 м над землей.
Td - Температура точки росы - температура, при понижении до которой содержащийся в воздухе водяной пар достигнет насыщения.
f - Относительная влажность воздуха - влажноcть воздуха, измеренная на высоте 2 м над землей.
Te - Эффективная температура - температура, которую ощущает одетый по сезону человек в тени. Характеристика душности погоды. При расчете учитывается влияние влажности воздуха и скорости ветра на теплоощущения человека.
Tes - Эффективная температура на солнце - температура, которую ощущает человек, с поправкой на солнечный нагрев. Характеристика знойности погоды. Зависит от высоты солнца над горизонтом, облачности и скорости ветра. Ночью, в пасмурную погоду, а также при ветре 12 м/с и более поправка равна нулю.
P - Атмосферное давление - приведенное к уровню моря атмосферное давление.
Po - Атмосферное давление - измеренное на уровне метеостанции атмосферное давление.
Tmin - Минимальная температура - минимум температуры воздуха на высоте 2 м над землей.
Tmax - Максимальная температура - максимум температуры воздуха на высоте 2 м над землей.
R - Количество осадков - Количество выпавших осадков за период времени, мм. При наведении курсора мыши на число - период времени, за который выпало указанное количество осадков.
R24 - Количество осадков - Количество выпавших осадков за 24 часа, мм.
S - Снежный покров - Высота снежного покрова, см. При наведении курсора мыши на число - состояние снежного покрова и степень покрытия местности в баллах.